This demonstration page uses our WeatherBlox Daily Observations layout. Learn more.

Left ArrowRight Arrow

44.31136, -96.79839

Hourly Observations for May 4, 2022

Temp ( °F °C ) Dew Point ( °F °C ) Humidity (%) Winds ( mph kmh ) Pressure ( in mb ) Visibility ( mi km ) Precip ( " mm )
12:56 am 00:56 Clear 41 5 35 1.7 79 79 Calm 30.21 1023 10 16 0.00 0.00
1:56 am 01:56 Clear 39 3.9 35 1.7 86 86 Calm 30.22 1023 10 16 0.00 0.00
2:56 am 02:56 Clear 38 3.3 34 1.1 86 86 Calm 30.22 1023 10 16 0.00 0.00
3:56 am 03:56 Clear 37 2.8 34 1.1 89 89 Calm 30.21 1023 10 16 0.00 0.00
4:56 am 04:56 Clear 37 2.8 34 1.1 89 89 Calm 30.22 1023 10 16 0.00 0.00
5:56 am 05:56 Clear 38 3.3 34 1.1 86 86 SE 3 6 30.22 1023 10 16 0.00 0.00
6:56 am 06:56 Sunny 36 2.2 33 0.6 89 89 SE 3 6 30.23 1024 10 16 0.00 0.00
7:56 am 07:56 Sunny 42 5.6 37 2.8 82 82 ESE 3 6 30.22 1024 10 16 0.00 0.00
8:56 am 08:56 Sunny 45 7.2 38 3.3 77 77 SE 6 9 30.22 1024 10 16 0.00 0.00
9:56 am 09:56 Sunny 49 9.4 39 3.9 69 69 SE 6 9 30.22 1024 10 16 0.00 0.00
10:56 am 10:56 Partly Cloudy 52 11.1 38 3.3 59 59 SE 9 15 30.22 1024 10 16 0.00 0.00
11:56 am 11:56 Cloudy 51 10.6 38 3.3 61 61 S 9 15 30.23 1024 10 16 0.00 0.00
12:56 pm 12:56 Cloudy 52 11.1 38 3.3 59 59 SE 5 7 30.22 1023 10 16 0.00 0.00
1:56 pm 13:56 Cloudy 52 11.1 38 3.3 59 59 SSE 9 15 30.20 1023 10 16 0.00 0.00
2:56 pm 14:56 Mostly Cloudy 53 11.7 40 4.4 61 61 S 13 20 30.21 1023 10 16 0.00 0.00
3:56 pm 15:56 Cloudy 53 11.7 40 4.4 61 61 S 15 24 30.22 1023 10 16 0.00 0.00
4:56 pm 16:56 Cloudy 52 11.1 40 4.4 64 64 S 15 24 30.20 1023 10 16 0.00 0.00
5:56 pm 17:56 Cloudy 52 11.1 40 4.4 64 64 S 8 13 30.19 1023 10 16 0.00 0.00
6:56 pm 18:56 Mostly Cloudy 52 11.1 40 4.4 64 64 S 8 13 30.18 1022 10 16 0.00 0.00
7:56 pm 19:56 Cloudy 52 11.1 40 4.4 64 64 S 6 9 30.17 1022 10 16 0.00 0.00
8:56 pm 20:56 Cloudy 51 10.6 41 5 69 69 SSE 3 6 30.17 1022 10 16 0.00 0.00
9:56 pm 21:56 Cloudy 51 10.6 41 5 69 69 SSE 3 6 30.18 1022 10 16 0.00 0.00
10:56 pm 22:56 Cloudy 50 10 41 5 71 71 Calm 30.17 1022 10 16 0.00 0.00
11:56 pm 23:56 Cloudy 49 9.4 41 5 74 74 Calm 30.17 1022 10 16 0.00 0.00

Powered by AerisWeather